When you browse on this site, cookies collect data to enhance your experience and personalize the content and advertising you see.
Visit our Privacy Policy to learn more. By continuing to use the site, you agree to this use of cookies and data.
  • In Spain
  • List of Countries
  • For 7 days
  • Water Temperature
  • Weather Map
  • Weather Widgets
  • user-avatar
    Login

    Hourly Weather Chern

    Today, 20 August, Tuesday

    Time Temperature Precipitation Wind Pressure Humidity
    00:00 +15°C° 0 mm 0 mps 746 mmHg 87%
    01:00 +15°C° 0 mm 0 mps 746 mmHg 87%
    02:00 +15°C° 0 mm 0 mps 746 mmHg 87%
    03:00 +15°C° 0 mm 0 mps 746 mmHg 87%
    04:00 +15°C° 0 mm 0 mps 746 mmHg 87%
    05:00 +15°C° 0 mm 0 mps 746 mmHg 88%
    06:00 +17°C° 0 mm 0 mps 747 mmHg 82%
    07:00 +18°C° 0 mm 0 mps 747 mmHg 77%
    08:00 +20°C° 0 mm 0 mps 747 mmHg 71%
    09:00 +23°C° 0 mm 1 mps 747 mmHg 66%
    10:00 +25°C° 0 mm 1 mps 747 mmHg 61%
    11:00 +26°C° 0 mm 1 mps 747 mmHg 56%
    12:00 +26°C° 0 mm 1 mps 747 mmHg 55%
    13:00 +27°C° 0 mm 1 mps 747 mmHg 53%
    14:00 +27°C° 0 mm 1 mps 747 mmHg 52%
    15:00 +27°C° 0 mm 1 mps 747 mmHg 56%
    16:00 +27°C° 0 mm 1 mps 747 mmHg 60%
    17:00 +26°C° 0 mm 1 mps 747 mmHg 64%
    18:00 +25°C° 0 mm 1 mps 747 mmHg 67%
    19:00 +21°C° 0 mm 0 mps 747 mmHg 70%
    20:00 +19°C° 0 mm 0 mps 747 mmHg 74%
    21:00 +19°C° 0 mm 0 mps 747 mmHg 75%
    22:00 +21°C° 0 mm 1 mps 747 mmHg 76%
    23:00 +20°C° 0 mm 1 mps 747 mmHg 77%

    Tomorrow, 21 August, Wednesday

    Time Temperature Precipitation Wind Pressure Humidity
    00:00 +20°C° 0 mm 1 mps 747 mmHg 78%
    01:00 +19°C° 0 mm 1 mps 748 mmHg 80%
    02:00 +19°C° 0 mm 1 mps 748 mmHg 81%
    03:00 +19°C° 0 mm 1 mps 748 mmHg 82%
    04:00 +19°C° 0 mm 1 mps 748 mmHg 83%
    05:00 +19°C° 0 mm 1 mps 747 mmHg 83%
    06:00 +20°C° 0 mm 1 mps 748 mmHg 79%
    07:00 +22°C° 0 mm 1 mps 748 mmHg 74%
    08:00 +24°C° 0 mm 1 mps 748 mmHg 69%
    09:00 +25°C° 0 mm 1 mps 748 mmHg 66%
    10:00 +24°C° 0 mm 0 mps 748 mmHg 62%
    11:00 +26°C° 0 mm 0 mps 748 mmHg 59%
    12:00 +26°C° 0 mm 0 mps 748 mmHg 57%
    13:00 +29°C° 0 mm 1 mps 748 mmHg 55%
    14:00 +29°C° 0 mm 1 mps 747 mmHg 54%
    15:00 +29°C° 0 mm 1 mps 747 mmHg 57%
    16:00 +28°C° 0 mm 1 mps 747 mmHg 61%
    17:00 +28°C° 0 mm 1 mps 746 mmHg 64%
    18:00 +26°C° 0 mm 1 mps 746 mmHg 68%
    19:00 +25°C° 0 mm 1 mps 746 mmHg 72%
    20:00 +23°C° 0 mm 1 mps 746 mmHg 75%
    21:00 +23°C° 0 mm 1 mps 746 mmHg 77%
    22:00 +21°C° 0 mm 2 mps 746 mmHg 78%
    23:00 +21°C° 0 mm 2 mps 746 mmHg 80%

    Day after tomorrow, 22 August, Thursday

    Time Temperature Precipitation Wind Pressure Humidity
    00:00 +20°C° 0 mm 2 mps 746 mmHg 81%
    01:00 +21°C° 0 mm 1 mps 746 mmHg 83%
    02:00 +20°C° 0 mm 1 mps 746 mmHg 84%
    03:00 +20°C° 0 mm 1 mps 746 mmHg 85%
    04:00 +20°C° 0 mm 1 mps 745 mmHg 85%
    05:00 +19°C° 0 mm 1 mps 745 mmHg 86%
    06:00 +21°C° 0 mm 1 mps 745 mmHg 81%
    07:00 +23°C° 0 mm 1 mps 745 mmHg 76%
    08:00 +24°C° 0 mm 1 mps 745 mmHg 70%
    09:00 +25°C° 0 mm 1 mps 745 mmHg 67%
    10:00 +27°C° 0 mm 1 mps 745 mmHg 64%
    11:00 +28°C° 0 mm 1 mps 745 mmHg 60%
    12:00 +28°C° 0 mm 1 mps 745 mmHg 59%
    13:00 +28°C° 0 mm 1 mps 745 mmHg 58%
    14:00 +29°C° 0 mm 1 mps 745 mmHg 57%
    15:00 +28°C° 0.6 mm 2 mps 745 mmHg 63%
    16:00 +27°C° 0.6 mm 2 mps 745 mmHg 69%
    17:00 +26°C° 0.6 mm 3 mps 745 mmHg 75%
    18:00 +23°C° 0.5 mm 4 mps 745 mmHg 81%
    19:00 +21°C° 0.5 mm 4 mps 745 mmHg 87%
    20:00 +20°C° 0.5 mm 5 mps 746 mmHg 93%
    21:00 +19°C° 0 mm 5 mps 746 mmHg 93%
    22:00 +18°C° 0 mm 4 mps 746 mmHg 93%
    23:00 +18°C° 0 mm 4 mps 746 mmHg 93%

    23 August, Friday

    Time Temperature Precipitation Wind Pressure Humidity
    00:00 +17°C° 0 mm 4 mps 747 mmHg 93%
    01:00 +17°C° 0 mm 4 mps 747 mmHg 93%
    02:00 +15°C° 0 mm 4 mps 747 mmHg 92%
    03:00 +15°C° 0.1 mm 4 mps 747 mmHg 93%
    04:00 +15°C° 0.1 mm 4 mps 747 mmHg 93%
    05:00 +14°C° 0.1 mm 4 mps 747 mmHg 93%
    06:00 +15°C° 0 mm 4 mps 747 mmHg 89%
    07:00 +17°C° 0 mm 4 mps 747 mmHg 86%
    08:00 +17°C° 0 mm 5 mps 748 mmHg 82%
    09:00 +19°C° 0 mm 5 mps 748 mmHg 77%
    10:00 +20°C° 0 mm 5 mps 748 mmHg 73%
    11:00 +21°C° 0 mm 5 mps 748 mmHg 69%
    12:00 +22°C° 0 mm 4 mps 748 mmHg 67%
    13:00 +22°C° 0 mm 4 mps 748 mmHg 65%
    14:00 +23°C° 0 mm 4 mps 748 mmHg 63%
    15:00 +22°C° 0 mm 4 mps 748 mmHg 66%
    16:00 +22°C° 0 mm 3 mps 748 mmHg 68%
    17:00 +21°C° 0 mm 3 mps 747 mmHg 71%
    18:00 +20°C° 0 mm 3 mps 748 mmHg 73%
    19:00 +18°C° 0 mm 2 mps 748 mmHg 76%
    20:00 +17°C° 0 mm 2 mps 748 mmHg 78%
    21:00 +16°C° 0 mm 2 mps 748 mmHg 80%
    22:00 +16°C° 0 mm 2 mps 748 mmHg 81%
    23:00 +15°C° 0 mm 2 mps 748 mmHg 83%

    24 August, Saturday

    Time Temperature Precipitation Wind Pressure Humidity
    00:00 +15°C° 0 mm 2 mps 748 mmHg 83%
    01:00 +14°C° 0 mm 2 mps 749 mmHg 84%
    02:00 +14°C° 0 mm 2 mps 749 mmHg 85%
    03:00 +13°C° 0 mm 2 mps 749 mmHg 85%
    04:00 +13°C° 0 mm 2 mps 749 mmHg 86%
    05:00 +13°C° 0 mm 2 mps 749 mmHg 86%
    06:00 +13°C° 0 mm 3 mps 749 mmHg 82%
    07:00 +16°C° 0 mm 3 mps 749 mmHg 78%
    08:00 +17°C° 0 mm 3 mps 750 mmHg 74%
    09:00 +19°C° 0 mm 3 mps 750 mmHg 67%
    10:00 +20°C° 0 mm 3 mps 750 mmHg 61%
    11:00 +21°C° 0 mm 3 mps 750 mmHg 54%
    12:00 +22°C° 0 mm 3 mps 750 mmHg 52%
    13:00 +23°C° 0 mm 2 mps 749 mmHg 50%
    14:00 +23°C° 0 mm 2 mps 749 mmHg 48%
    15:00 +23°C° 0 mm 2 mps 749 mmHg 52%
    16:00 +23°C° 0 mm 2 mps 749 mmHg 56%
    17:00 +21°C° 0 mm 2 mps 749 mmHg 60%
    18:00 +20°C° 0 mm 1 mps 749 mmHg 63%
    19:00 +19°C° 0 mm 1 mps 749 mmHg 65%
    20:00 +15°C° 0 mm 0 mps 749 mmHg 68%
    21:00 +16°C° 0 mm 1 mps 749 mmHg 68%
    22:00 +15°C° 0 mm 1 mps 749 mmHg 69%
    23:00 +15°C° 0 mm 1 mps 749 mmHg 70%

    25 August, Sunday

    Time Temperature Precipitation Wind Pressure Humidity
    00:00 +15°C° 0 mm 1 mps 749 mmHg 71%
    01:00 +14°C° 0 mm 2 mps 749 mmHg 72%
    02:00 +14°C° 0 mm 2 mps 749 mmHg 73%
    03:00 +14°C° 0 mm 2 mps 749 mmHg 75%
    04:00 +13°C° 0 mm 2 mps 749 mmHg 77%
    05:00 +13°C° 0 mm 2 mps 749 mmHg 79%
    06:00 +15°C° 0 mm 2 mps 749 mmHg 77%
    07:00 +16°C° 0 mm 2 mps 749 mmHg 75%
    08:00 +18°C° 0 mm 2 mps 749 mmHg 72%
    09:00 +19°C° 0 mm 3 mps 748 mmHg 68%
    10:00 +21°C° 0 mm 3 mps 748 mmHg 64%
    11:00 +22°C° 0 mm 3 mps 748 mmHg 59%
    12:00 +22°C° 0 mm 3 mps 748 mmHg 58%
    13:00 +24°C° 0 mm 3 mps 747 mmHg 57%
    14:00 +24°C° 0 mm 3 mps 747 mmHg 55%
    15:00 +24°C° 0 mm 3 mps 747 mmHg 59%
    16:00 +22°C° 0 mm 3 mps 747 mmHg 62%
    17:00 +23°C° 0 mm 2 mps 746 mmHg 66%
    18:00 +20°C° 0 mm 2 mps 746 mmHg 70%
    19:00 +19°C° 0 mm 2 mps 746 mmHg 75%
    20:00 +17°C° 0 mm 2 mps 746 mmHg 79%
    21:00 +17°C° 0 mm 2 mps 746 mmHg 81%
    22:00 +16°C° 0 mm 2 mps 747 mmHg 84%
    23:00 +16°C° 0 mm 2 mps 747 mmHg 86%
    Show more